Вернуться в каталог

SL-14 DEB

АктивенPO
NORAD 19133·DEBRIS·🇷🇺 Russia

Запущен Oct 26, 1978 с Plesetsk Cosmodrome

Loading…

Ближайшие Пролёты (ближайшие 24 часа)

TLE

СвежийSource: Space-Track

Эпоха: Sep 14, 2026, 10:11 UTC

1 19133U 78100F   26257.42440171  .00003187  00000-0  15615-1 0  9996
2 19133  82.3313 235.3340 0058436 326.9175 200.0576 12.71347236148063

Отслеживайте SL-14 DEB в реальном времени с AllMySat

Download on the App Store